Hourly Weather Roundup
Issued by NWS Central Illinois

Home | Current Version | Previous Version | Text Only | Print | Product List | Glossary On
Versions: 1 2 3 4 5 6 7 8 9 10 11 12 13 14 15 16 17 18 19 20 21 22 23 24 25 26 27 28 29 30 31 32 33 34 35 36 37 38 39 40 41 42 43 44 45 46 47 48 49 50
000
NZUS43 KILX 231410
HWRILX

Area Weather Roundup
National Weather Service Lincoln IL
900 AM CDT SAT SEP 23 2017

NOTE:  "FAIR" indicates few or no clouds below 12,000 feet, with
       no sigificant weather and/or obstructions to visibility.


CITY           SKY/WX    TMP DP  RH WIND       PRES   REMARKS
Bloomington    SUNNY     78  67  68 S6        30.12R HX  80
Champaign      SUNNY     80  66  62 SW3       30.12R HX  82
Danville       SUNNY     76  70  83 CALM      30.10S
Decatur        SUNNY     77  68  73 CALM      30.11R
Effingham      SUNNY     76  69  78 E3        30.12R
Flora          SUNNY     78  71  79 E5        30.10R
Galesburg      SUNNY     75  66  73 S6        30.09R
Jacksonville   SUNNY     78  66  65 CALM      30.09R HX  80
Lacon          SUNNY     76  67  72 CALM      30.08S
Lawrenceville  MOSUNNY   74  71  91 E5        30.11R FOG
Litchfield     SUNNY     76  68  77 SE3       30.10R
$$


CITY           SKY/WX    TMP DP  RH WIND       PRES   REMARKS
Lincoln        SUNNY     76  69  79 S3        30.10R
Macomb         SUNNY     74  66  77 CALM      30.10R
Mattoon        SUNNY     78  69  73 CALM      30.10R HX  80
Mt Carmel AP   SUNNY     74  69  83 E5        30.10R
Olney-Noble AP SUNNY     76  73  88 CALM      30.11R
Paris AP       SUNNY     77  72  84 CALM      30.13R
Peoria         SUNNY     77  68  73 CALM      30.09R
Pontiac        SUNNY     78  71  78 SE3       30.11S HX  80
Rantoul        SUNNY     78  71  77 CALM      30.12R HX  81
Robinson       SUNNY     74  69  85 CALM      30.12R
Springfield    SUNNY     80  68  66 S5        30.09R HX  83
Taylorville    SUNNY     76  68  74 SE3       30.10R
$$

...REGIONAL REPORTS...


CITY           SKY/WX    TMP DP  RH WIND       PRES   REMARKS
Chicago O`Hare MOSUNNY   81  66  60 S5        30.10R HX  83
Kankakee       SUNNY     74  69  82 SE3       30.12R
Moline         SUNNY     78  65  63 CALM      30.07R HX  80
Mount Sterling SUNNY     74  66  75 S3        30.08R
Mount Vernon     N/A     76  70  82 CALM      30.09R
Pittsfield     SUNNY     77  67  72 CALM      30.09R
Quincy         SUNNY     78  65  63 S5        30.07R HX  80
Rockford       SUNNY     75  67  76 S3        30.10S
$$


CITY           SKY/WX    TMP DP  RH WIND       PRES   REMARKS
Burlington     SUNNY     76  66  71 S6        30.06R
Cedar Rapids   SUNNY     75  64  68 S7        30.05R
Des Moines     MOSUNNY   75  68  78 S9        30.02R
Kirksville     SUNNY     76  68  76 S7        30.08R
Ottumwa        SUNNY     76  66  71 S7        30.05R
St Louis       SUNNY     80  67  64 S3        30.08R HX  82
$$


CITY           SKY/WX    TMP DP  RH WIND       PRES   REMARKS
Terre Haute    SUNNY     77  68  73 CALM      30.12R
Evansville     SUNNY     75  68  78 E3        30.10R
Indianapolis   SUNNY     78  68  71 CALM      30.13R HX  80
Lafayette      SUNNY     74  69  85 CALM      30.12R
Madison        MOSUNNY   75  66  73 S7        30.08R
Milwaukee      MOSUNNY   80  66  62 SW6       30.09R HX  82
$$






USA.gov is the U.S. government's official web portal to all federal, state and local government web resources and services.